sat.trackr.live / text

‹ back to catalog

THOR 5

NORAD 32487 · 2008-006A

PAYLOAD ACTIVE UNKNOWN

§ Identity

Operator
Country
NOR
Launch date
2008-02-11
Launch site
TYMSC
Launch vehicle
Mass (kg)
RCS (m²)
31.62

Purposes: comms

External: N2YO · Heavens-Above · Gunter

§ Orbital elements

Epoch: 2026-05-25T03:44:24.780768Z

Period
1,436.07 min
Inclination
0.0279°
Eccentricity
0.0002576
Mean motion
1.00273425 rev/d
Perigee alt
35,775.3 km
Apogee alt
35,797.0 km
Semi-major
42,164.3 km
B*
0.0000e+0
RAAN
259.1072°
Arg perigee
172.7981°
Mean anomaly
226.1977°
Rev number
6,708

§ Raw data

THOR 51 32487U 08006A   26145.15584237 -.00000011  00000+0  00000+0 0  99922 32487   0.0279 259.1072 0002576 172.7981 226.1977  1.00273425 67084

JSON: /api/v1/satellites/32487 · /tle

For live sub-satellite position, see the globe view (requires WebGL).

§ Visibility from observer

Set your observer location to see the next 7 days of passes ≥ 10°. The values pass through the URL so the page stays shareable.

No JS? Fill the form by hand. The geolocation button needs JavaScript.